Location: Gollag?dem
(16.8053°N, 80.8024°E)
Time: 09:09:16
(UTC+00:00)

Cosmos 1992 Rocket - Pass Details

Date: 13 August 2020
Orbit: 759 x 765 km, 74.0° (Epoch: 19 September)

Event Time Altitude Azimuth Distance (km) Brightness Sun altitude
Rises 13:48:56 0° 355° (N) 3,220 7.6 -11.3°
Reaches altitude 10° 13:51:24 10° 2° (N) 2,292 6.7 -11.9°
Maximum altitude 13:56:23 47° 75° (ENE) 1,004 4.3 -13.0°
Enters shadow 14:00:38 14° 146° (SE) 2,025 5.7 -14.0°
